Thermal, CA

1:05 PM PST on February 10, 2016 (GMT -0800)
Desert Resorts Regional

Weather History for KTRM - April, 2013

Change the Weather History Date:

Tuesday, April 30, 2013

  Actual Average Record
Temperature  
Mean Temperature 81 °F 74 °F  
Max Temperature 99 °F 91 °F 104 °F (1965)
Min Temperature 63 °F 58 °F 46 °F (1996)
Degree Days  
Heating Degree Days 0 0  
Month to date heating degree days 2 19  
Since 1 July heating degree days 1124 1180  
Cooling Degree Days 16 9  
Month to date cooling degree days 266 182  
Year to date cooling degree days 428 256  
Growing Degree Days 31 (Base 50)    
Moisture  
Dew Point 42 °F    
Average Humidity 28    
Maximum Humidity 44    
Minimum Humidity 11    
Precipitation  
Precipitation 0.00 in 0.00 in 0.03 in (1980)
Month to date precipitation 0.00 0.06  
Year to date precipitation 0.44 1.77  
Since 1 July precipitation 2.62  
Snow  
Snow 0.00 in - - ()
Month to date snowfall 0.0  
Year to date snowfall 0.0  
Since 1 July snowfall 0.0  
Snow Depth 0.00 in    
Sea Level Pressure  
Sea Level Pressure 29.61 in    
Wind  
Wind Speed 7 mph (WNW)    
Max Wind Speed 17 mph    
Max Gust Speed 21 mph    
Visibility 10 miles    
Events      
T = Trace of Precipitation, MM = Missing Value Source: NWS Daily Summary

Daily Weather History Graph

Daily Weather History Graph

Search for Another Location

Airport or City:

Trip Planner

Search our weather history database for the weather conditions in past years. The results will help you decide how hot, cold, wet, or windy it might be!

Date:

Astronomy

Apr. 30, 2013 Rise Set
Actual Time 5:56 AM PDT 7:27 PM PDT
Civil Twilight 5:30 AM PDT 7:53 PM PDT
Nautical Twilight 4:58 AM PDT 8:25 PM PDT
Astronomical Twilight 4:25 AM PDT 8:59 PM PDT
Moon No Moon Rise 10:33 AM PDT (4/30)
Length of Visible Light 14h 23m
Length of Day
13h 30m
Waning Gibbous, 69% of the Moon is Illuminated
Apr 30
Waning Gibbous
May 2
Last Quarter
May 9
New
May 17
First Quarter
May 24
Full

Hourly Weather History & Observations

Time (PDT) Temp. Dew Point Humidity Pressure Visibility Wind Dir Wind Speed Gust Speed Precip Events Conditions
12:52 AM 81.0 °F 43.0 °F 26% 29.60 in 10.0 mi NNW 12.7 mph - N/A   Clear
1:52 AM 80.1 °F 41.0 °F 25% 29.60 in 10.0 mi Variable 3.5 mph - N/A   Clear
2:52 AM 78.1 °F 41.0 °F 27% 29.60 in 10.0 mi WSW 4.6 mph - N/A   Clear
3:52 AM 71.1 °F 41.0 °F 34% 29.61 in 10.0 mi South 4.6 mph - N/A   Clear
4:52 AM 71.1 °F 42.1 °F 35% 29.64 in 10.0 mi WSW 3.5 mph - N/A   Clear
5:52 AM 64.0 °F 43.0 °F 46% 29.62 in 10.0 mi West 3.5 mph - N/A   Clear
6:52 AM 73.0 °F 41.0 °F 31% 29.63 in 10.0 mi West 5.8 mph - N/A   Clear
7:52 AM 80.1 °F 37.0 °F 21% 29.65 in 10.0 mi WNW 13.8 mph - N/A   Clear
8:52 AM 84.0 °F 36.0 °F 18% 29.66 in 10.0 mi NW 11.5 mph - N/A   Clear
9:52 AM 88.0 °F 36.0 °F 16% 29.64 in 10.0 mi Variable 3.5 mph - N/A   Clear
10:52 AM 90.0 °F 39.9 °F 17% 29.65 in 10.0 mi Variable 5.8 mph - N/A   Clear
12:52 PM 95.0 °F 45.0 °F 18% 29.62 in 10.0 mi SE 11.5 mph 18.4 mph N/A   Clear
1:52 PM 95.0 °F 34.0 °F 12% 29.62 in 10.0 mi SE 8.1 mph - N/A   Clear
2:52 PM 96.1 °F 35.1 °F 12% 29.62 in 10.0 mi South 4.6 mph - N/A   Clear
3:52 PM 97.0 °F 34.0 °F 11% 29.57 in 10.0 mi Calm Calm - N/A   Clear
4:52 PM 98.1 °F 37.9 °F 12% 29.55 in 10.0 mi NW 11.5 mph 19.6 mph N/A   Clear
5:52 PM 93.9 °F 39.9 °F 15% 29.55 in 10.0 mi NNW 16.1 mph - N/A   Clear
6:52 PM 89.1 °F 46.0 °F 22% 29.56 in 10.0 mi NNW 18.4 mph - N/A   Clear
7:52 PM 84.0 °F 48.9 °F 29% 29.58 in 10.0 mi NNW 19.6 mph 27.6 mph N/A   Clear
8:52 PM 80.1 °F 50.0 °F 35% 29.60 in 9.0 mi NNW 23.0 mph - N/A   Clear
9:52 PM 77.0 °F 50.0 °F 39% 29.62 in 10.0 mi NNW 17.3 mph 26.5 mph N/A   Clear
10:52 PM 77.0 °F 48.9 °F 37% 29.62 in 10.0 mi NNW 20.7 mph 29.9 mph N/A   Clear
11:52 PM 75.9 °F 48.9 °F 38% 29.64 in 10.0 mi NNW 19.6 mph 25.3 mph N/A   Clear